Tracking 19638 objects as of 19-Apr-2019
HD Live streaming from Space Station
objects crossing your sky now

SL-16 DEB

Track SL-16 DEB now!
10-day predictions


NORAD ID: 39884
Int'l Code: 1993-016BJ
Perigee: 737.8 km
Apogee: 925.6 km
Inclination: 71.0 °
Period: 101.4 minutes
Semi major axis: 7202 km
RCS: 0.0061 m2 (small)
Launch date: March 26, 1993
Source: Commonwealth of Independent States (former USSR) (CIS)
Launch site: TYURATAM MISSILE AND SPACE COMPLEX (TTMTR)

Note: This is SATELLITE DEBRIS
aabbcc
Your satellite tracking list
Your tracking list is empty




NASA's NSSDC Master Catalog

Two Line Element Set (TLE):
1 39884U 93016BJ  19109.21636374  .00001180  00000-0  52751-3 0  9996
2 39884  70.9658  65.1827 0130329 199.3231 160.2929 14.20239423738214
Source of the keplerian elements: AFSPC